DMSP 5D-2 F13 DEB, 40414

Orbit data source: Space-Track

DMSP 5D-2 F13 DEB, 40414 is space debris in SSO originally from a launch on Fri, 24 Mar 1995 UTC launched from the Air Force Western Test Range (AFWTR). Debris objects in space refer to the collection of defunct objects orbiting the Earth. Examples of debris include non-operational satellites, rocket bodies, and fragments generated from explosions, collisions, or faulty payload assembly.

Loading next visibility...
Identifier
40414, 1995-015AB
Orbit
SSO
Country
Flag of USUS
Related business
Manufacturer
Unknown
Mission
Spacecraft
Bus & Motor
Unknown
Mass
Unknown
Launch date (UTC)
1995-03-24 (30 years ago)
Launch vehicle
Unknown
Launch site
Air Force Western Test Range (AFWTR)
Object type
Payload
Rocket body
Debris
Shape & HBR
Unknown
Radar Cross Section
Small (<0.1 m²)

Expand to show TLE details & history
Last TLE update: 1 day ago

TLE from 1 day ago
0 DMSP 5D-2 F13 DEB
1 40414U 95015AB  25257.04764588  .00001557  00000-0  60841-3 0  9996
2 40414  98.6524 281.4983 0011474  23.8283 336.3429 14.30970426547762
Epoch: 2025-09-14T01:08Z
TLE epoch observation values (Epoch: 2025-09-14T01:08:36.604Z)
Latitude
0.00003°
Longitude
-88.92648°
Altitude
783.888 km
Speed
7.466 km/s
True Right ascension
18h 45m 59s
True Declination
0° 00' 00"
Sunlit
Object was in daylight at epoch
Visualization orbit readout
Latitude
Unknown
Longitude
Unknown
Altitude
Unknown
Speed
Unknown
Apparent Right ascension
Unknown
Apparent Declination
Unknown
Sunlit
N/A
Visualization observer readout
Local Sidereal Time
22:40:31
Azimuth
Unknown
Elevation
Unknown
Doppler factor
Unknown
Orbital elements
Apogee altitude
793.85 km
Perigee altitude
777.41 km
Semi-major axis
7,163.767 km
Eccentricity
0.00115
Inclination
98.6524°
RAAN
281.4983°
Arg. of periapsis
23.8283°
True anomaly
336.29007°
Mean anomaly
336.3429°
Eccentric anomaly
336.31649°
Mean motion
3.57957 °/min
Orbital period
100.57 mins
BSTAR
0.00060841
Loading maneuver chart data...
Computing Atmospheric mass density...

Documentation

Showing up to 5 results
|